N914BD KRIC-KTEB

Flight info

Callsign N914BD
Flight time N/A
Altitude 45000
Route LUCYL6 LUCYL HYTRA JAIKE4
Aircraft GLF5/M-SDFWEGERGFE/L

Departure

Time 2026-04-22 23:43
Airport Richmond International Airport (KRIC)

Arrival

Time N/A
Airport Teterboro Airport (KTEB)
Time Latitude Longitude Altitude Speed Heading
2026-04-22 23:22 37.51732 -77.32928 165 ft 0 kts 71°
2026-04-22 23:32 37.51732 -77.32912 165 ft 4 kts 107°
2026-04-22 23:32 37.51688 -77.32882 165 ft 9 kts 157°
2026-04-22 23:33 37.51638 -77.32816 165 ft 12 kts 90°
2026-04-22 23:33 37.51629 -77.32694 165 ft 14 kts 129°
2026-04-22 23:33 37.51531 -77.32702 165 ft 15 kts 193°
2026-04-22 23:33 37.51423 -77.32734 165 ft 16 kts 193°
2026-04-22 23:34 37.51304 -77.32770 165 ft 18 kts 194°
2026-04-22 23:34 37.51172 -77.32808 165 ft 20 kts 194°
2026-04-22 23:34 37.51027 -77.32852 165 ft 21 kts 194°
2026-04-22 23:34 37.50879 -77.32898 165 ft 22 kts 194°
2026-04-22 23:35 37.50727 -77.32943 163 ft 23 kts 193°
2026-04-22 23:35 37.50569 -77.32992 162 ft 22 kts 194°
2026-04-22 23:35 37.50417 -77.33038 162 ft 21 kts 195°
2026-04-22 23:35 37.50276 -77.33085 162 ft 20 kts 194°
2026-04-22 23:36 37.50139 -77.33126 162 ft 19 kts 194°
2026-04-22 23:36 37.50010 -77.33167 162 ft 18 kts 193°
2026-04-22 23:36 37.49924 -77.33101 162 ft 17 kts 102°
2026-04-22 23:36 37.49905 -77.32961 162 ft 16 kts 102°
2026-04-22 23:37 37.49843 -77.32843 162 ft 16 kts 130°
2026-04-22 23:37 37.49769 -77.32732 160 ft 16 kts 131°
2026-04-22 23:37 37.49691 -77.32617 159 ft 17 kts 130°
2026-04-22 23:37 37.49683 -77.32493 159 ft 16 kts 58°
2026-04-22 23:38 37.49742 -77.32375 159 ft 15 kts 57°
2026-04-22 23:38 37.49804 -77.32255 158 ft 17 kts 57°
2026-04-22 23:38 37.49870 -77.32124 159 ft 19 kts 58°
2026-04-22 23:38 37.49949 -77.31968 159 ft 23 kts 59°
2026-04-22 23:39 37.50044 -77.31782 161 ft 26 kts 58°
2026-04-22 23:39 37.50144 -77.31582 162 ft 26 kts 59°
2026-04-22 23:39 37.50124 -77.31432 162 ft 19 kts 146°
2026-04-22 23:39 37.50010 -77.31339 162 ft 19 kts 147°
2026-04-22 23:40 37.49895 -77.31247 160 ft 20 kts 147°
2026-04-22 23:40 37.49781 -77.31157 159 ft 20 kts 148°
2026-04-22 23:40 37.49671 -77.31068 159 ft 20 kts 148°
2026-04-22 23:40 37.49568 -77.30985 159 ft 19 kts 146°
2026-04-22 23:41 37.49494 -77.30885 159 ft 17 kts 63°
2026-04-22 23:41 37.49530 -77.30817 159 ft 0 kts 59°
2026-04-22 23:41 37.49530 -77.30816 159 ft 0 kts 58°
2026-04-22 23:42 37.49541 -77.30794 159 ft 8 kts 58°
2026-04-22 23:42 37.49611 -77.30717 159 ft 18 kts 337°
2026-04-22 23:42 37.49746 -77.30823 159 ft 36 kts 327°
2026-04-22 23:42 37.50234 -77.31213 164 ft 133 kts 326°
2026-04-22 23:43 37.51185 -77.31923 665 ft 174 kts 327°
2026-04-22 23:43 37.52330 -77.32409 1665 ft 184 kts 346°
2026-04-22 23:43 37.53711 -77.32303 2254 ft 224 kts
2026-04-22 23:43 37.55194 -77.31604 3440 ft 222 kts 23°
2026-04-22 23:44 37.56271 -77.30299 3284 ft 229 kts 56°
2026-04-22 23:44 37.56982 -77.28406 3681 ft 255 kts 60°
2026-04-22 23:44 37.57628 -77.26589 5251 ft 230 kts 60°
2026-04-22 23:44 37.58427 -77.24620 5020 ft 272 kts 53°
2026-04-22 23:45 37.59568 -77.22732 5002 ft 271 kts 43°
2026-04-22 23:45 37.60884 -77.21064 4997 ft 268 kts 38°
2026-04-22 23:45 37.62278 -77.19530 4993 ft 267 kts 34°
2026-04-22 23:45 37.63729 -77.18066 4988 ft 267 kts 32°
2026-04-22 23:46 37.65264 -77.16597 5281 ft 291 kts 32°
2026-04-22 23:46 37.66749 -77.15193 7489 ft 267 kts 31°
2026-04-22 23:46 37.68205 -77.13760 8812 ft 279 kts 34°
2026-04-22 23:46 37.69699 -77.12238 10190 ft 287 kts 34°
2026-04-22 23:47 37.71213 -77.10699 11676 ft 281 kts 34°
2026-04-22 23:47 37.72778 -77.09122 12085 ft 305 kts 34°
2026-04-22 23:47 37.74380 -77.07496 13933 ft 293 kts 33°
2026-04-22 23:47 37.75923 -77.05938 15338 ft 297 kts 33°
2026-04-22 23:48 37.77578 -77.04271 16431 ft 312 kts 33°
2026-04-22 23:48 37.79250 -77.02583 17730 ft 319 kts 33°
2026-04-22 23:48 37.81005 -77.00809 19166 ft 323 kts 33°
2026-04-22 23:48 37.82754 -76.99040 20458 ft 332 kts 33°
2026-04-22 23:49 37.84537 -76.97237 21771 ft 338 kts 33°
2026-04-22 23:49 37.86374 -76.95377 23078 ft 345 kts 32°
2026-04-22 23:49 37.88254 -76.93471 24339 ft 351 kts 32°
2026-04-22 23:49 37.90157 -76.91539 25750 ft 352 kts 32°
2026-04-22 23:50 37.91938 -76.89468 26942 ft 359 kts 38°
2026-04-22 23:50 37.93709 -76.87212 28070 ft 365 kts 38°
2026-04-22 23:50 37.95467 -76.84977 29260 ft 366 kts 38°
2026-04-22 23:50 37.97279 -76.82677 30326 ft 371 kts 38°
2026-04-22 23:51 37.99101 -76.80365 31255 ft 377 kts 38°
2026-04-22 23:51 38.00940 -76.78024 32318 ft 377 kts 38°
2026-04-22 23:51 38.02777 -76.75687 33371 ft 377 kts 37°
2026-04-22 23:51 38.04687 -76.73270 33244 ft 406 kts 38°
2026-04-22 23:52 38.06720 -76.70676 33837 ft 415 kts 38°
2026-04-22 23:52 38.08725 -76.68111 35081 ft 409 kts 38°
2026-04-22 23:52 38.10685 -76.65572 36118 ft 406 kts 38°
2026-04-22 23:52 38.12632 -76.63042 37045 ft 406 kts 39°
2026-04-22 23:53 38.14576 -76.60512 37874 ft 406 kts 38°
2026-04-22 23:53 38.16543 -76.57952 38711 ft 406 kts 39°
2026-04-22 23:53 38.18518 -76.55378 39500 ft 406 kts 39°
2026-04-22 23:53 38.20461 -76.52843 40259 ft 406 kts 39°
2026-04-22 23:54 38.22442 -76.50260 40776 ft 409 kts 39°
2026-04-22 23:54 38.24404 -76.47697 41210 ft 413 kts 39°
2026-04-22 23:54 38.26409 -76.45077 41634 ft 416 kts 39°
2026-04-22 23:54 38.28501 -76.42487 42035 ft 412 kts 31°
2026-04-22 23:55 38.30964 -76.40882 42340 ft 400 kts 11°
2026-04-22 23:55 38.33625 -76.39966 42816 ft 398 kts
2026-04-22 23:55 38.36303 -76.39075 43122 ft 402 kts
2026-04-22 23:55 38.39028 -76.38172 43525 ft 404 kts
2026-04-22 23:56 38.41743 -76.37278 43873 ft 406 kts
2026-04-22 23:56 38.44450 -76.36387 44194 ft 409 kts
2026-04-22 23:56 38.46875 -76.35589 44480 ft 410 kts
2026-04-22 23:56 38.49628 -76.34681 44778 ft 413 kts
2026-04-22 23:57 38.52439 -76.33754 44979 ft 412 kts
2026-04-22 23:57 38.55162 -76.32855 44987 ft 409 kts
2026-04-22 23:57 38.60590 -76.31063 44995 ft 411 kts
2026-04-22 23:58 38.66117 -76.29234 44994 ft 414 kts
2026-04-22 23:58 38.71609 -76.27413 45001 ft 414 kts
2026-04-22 23:59 38.77153 -76.25573 44993 ft 412 kts
2026-04-22 23:59 38.82621 -76.23755 44994 ft 412 kts
2026-04-23 00:00 38.90876 -76.21005 44995 ft 414 kts
2026-04-23 00:01 38.96398 -76.19162 44988 ft 414 kts
2026-04-23 00:01 38.99097 -76.18260 44851 ft 417 kts
2026-04-23 00:01 39.01792 -76.17359 44429 ft 418 kts
2026-04-23 00:01 39.04587 -76.16421 44019 ft 412 kts
2026-04-23 00:02 39.07256 -76.15527 43600 ft 407 kts
2026-04-23 00:02 39.09953 -76.14623 43150 ft 402 kts
2026-04-23 00:02 39.12345 -76.13820 42758 ft 398 kts
2026-04-23 00:03 39.18070 -76.11897 41792 ft 390 kts
2026-04-23 00:03 39.20696 -76.11015 41355 ft 388 kts
2026-04-23 00:03 39.23243 -76.10157 40868 ft 386 kts
2026-04-23 00:03 39.25812 -76.09288 40353 ft 383 kts 10°
2026-04-23 00:04 39.28239 -76.07793 39836 ft 392 kts 27°
2026-04-23 00:04 39.30402 -76.05788 39298 ft 392 kts 29°
2026-04-23 00:04 39.32574 -76.03758 38742 ft 394 kts 29°
2026-04-23 00:04 39.34743 -76.01722 38192 ft 396 kts 29°
2026-04-23 00:05 39.36922 -75.99676 37644 ft 396 kts 29°
2026-04-23 00:05 39.39120 -75.97608 37090 ft 397 kts 29°
2026-04-23 00:05 39.41255 -75.95597 36552 ft 396 kts 29°
2026-04-23 00:05 39.43422 -75.93556 36007 ft 396 kts 28°
2026-04-23 00:06 39.45652 -75.91455 35450 ft 398 kts 28°
2026-04-23 00:06 39.47873 -75.89360 34902 ft 399 kts 28°
2026-04-23 00:06 39.49944 -75.87404 34386 ft 399 kts 28°
2026-04-23 00:06 39.52156 -75.85315 33864 ft 401 kts 28°
2026-04-23 00:07 39.54382 -75.83212 33356 ft 401 kts 29°
2026-04-23 00:07 39.56614 -75.81097 32841 ft 402 kts 29°
2026-04-23 00:07 39.58778 -75.79060 32348 ft 402 kts 28°
2026-04-23 00:07 39.60988 -75.77037 31848 ft 405 kts 28°
2026-04-23 00:08 39.63240 -75.74973 31350 ft 406 kts 28°
2026-04-23 00:08 39.65488 -75.72910 30846 ft 406 kts 28°
2026-04-23 00:08 39.67699 -75.70878 30359 ft 404 kts 28°
2026-04-23 00:08 39.69884 -75.68868 29866 ft 401 kts 28°
2026-04-23 00:09 39.72128 -75.66804 29360 ft 399 kts 28°
2026-04-23 00:09 39.74362 -75.64750 28854 ft 397 kts 28°
2026-04-23 00:09 39.76574 -75.62715 28357 ft 393 kts 28°
2026-04-23 00:09 39.78737 -75.60721 27767 ft 386 kts 28°
2026-04-23 00:10 39.80175 -75.59397 27253 ft 384 kts 28°
2026-04-23 00:10 39.82317 -75.57421 26473 ft 379 kts 28°
2026-04-23 00:10 39.85052 -75.54887 25390 ft 350 kts 28°
2026-04-23 00:10 39.86947 -75.53135 24618 ft 332 kts 28°
2026-04-23 00:11 39.88773 -75.51447 23828 ft 319 kts 28°
2026-04-23 00:11 39.90561 -75.49794 23031 ft 308 kts 28°
2026-04-23 00:11 39.92271 -75.48210 22242 ft 300 kts 28°
2026-04-23 00:11 39.93945 -75.46660 21460 ft 292 kts 27°
2026-04-23 00:12 39.95563 -75.45161 20691 ft 286 kts 27°
2026-04-23 00:12 39.97170 -75.43671 19918 ft 286 kts 27°
2026-04-23 00:12 39.98795 -75.42167 19164 ft 288 kts 27°
2026-04-23 00:12 40.00401 -75.40672 18396 ft 282 kts 27°
2026-04-23 00:13 40.01973 -75.39211 17643 ft 277 kts 27°
2026-04-23 00:13 40.03521 -75.37772 16894 ft 273 kts 27°
2026-04-23 00:13 40.05040 -75.36359 16150 ft 269 kts 27°
2026-04-23 00:13 40.06565 -75.34939 15391 ft 266 kts 28°
2026-04-23 00:14 40.08050 -75.33555 14637 ft 263 kts 28°
2026-04-23 00:14 40.09433 -75.32268 13931 ft 261 kts 28°
2026-04-23 00:14 40.10854 -75.30891 13210 ft 262 kts 37°
2026-04-23 00:14 40.11940 -75.28988 13013 ft 258 kts 39°
2026-04-23 00:15 40.13477 -75.27719 13059 ft 275 kts 17°
2026-04-23 00:15 40.15269 -75.26522 13005 ft 295 kts 25°
2026-04-23 00:15 40.16987 -75.25069 12995 ft 295 kts 27°
2026-04-23 00:15 40.18670 -75.23576 13055 ft 297 kts 28°
2026-04-23 00:16 40.20377 -75.22022 12994 ft 295 kts 28°
2026-04-23 00:16 40.22047 -75.20483 12992 ft 293 kts 29°
2026-04-23 00:16 40.23148 -75.19462 12995 ft 293 kts 28°
2026-04-23 00:16 40.24809 -75.17915 12994 ft 292 kts 28°
2026-04-23 00:17 40.27015 -75.15855 12995 ft 291 kts 29°
2026-04-23 00:17 40.28656 -75.14320 12997 ft 291 kts 29°
2026-04-23 00:17 40.30314 -75.12766 12994 ft 292 kts 28°
2026-04-23 00:17 40.31971 -75.11198 12992 ft 294 kts 32°
2026-04-23 00:18 40.33427 -75.09309 12980 ft 300 kts 40°
2026-04-23 00:18 40.34860 -75.07285 12541 ft 304 kts 40°
2026-04-23 00:18 40.36253 -75.05321 12062 ft 302 kts 40°
2026-04-23 00:18 40.37685 -75.03306 11446 ft 306 kts 40°
2026-04-23 00:19 40.38641 -75.01963 10641 ft 309 kts 41°
2026-04-23 00:19 40.40528 -74.99300 9208 ft 297 kts 40°
2026-04-23 00:19 40.41450 -74.97999 8497 ft 292 kts 40°
2026-04-23 00:19 40.43259 -74.95452 7152 ft 281 kts 40°
2026-04-23 00:20 40.44141 -74.94210 7079 ft 277 kts 40°
2026-04-23 00:20 40.45883 -74.91757 7005 ft 277 kts 40°
2026-04-23 00:20 40.47212 -74.89883 7004 ft 279 kts 40°
2026-04-23 00:20 40.48527 -74.88028 7005 ft 279 kts 40°
2026-04-23 00:21 40.49832 -74.86186 6986 ft 278 kts 40°
2026-04-23 00:21 40.51135 -74.84344 6996 ft 278 kts 41°
2026-04-23 00:21 40.52446 -74.82488 7002 ft 277 kts 40°
2026-04-23 00:21 40.53757 -74.80634 7004 ft 277 kts 41°
2026-04-23 00:22 40.55070 -74.78777 7001 ft 279 kts 41°
2026-04-23 00:22 40.56368 -74.76936 7005 ft 277 kts 41°
2026-04-23 00:22 40.57667 -74.75096 7005 ft 279 kts 41°
2026-04-23 00:22 40.59121 -74.73508 7009 ft 270 kts 26°
2026-04-23 00:23 40.60703 -74.72224 7007 ft 269 kts 25°
2026-04-23 00:23 40.62303 -74.70924 7006 ft 269 kts 25°
2026-04-23 00:23 40.63887 -74.69636 7001 ft 270 kts 25°
2026-04-23 00:23 40.65478 -74.68337 7001 ft 269 kts 25°
2026-04-23 00:24 40.67064 -74.67042 7006 ft 269 kts 25°
2026-04-23 00:24 40.68084 -74.66211 6943 ft 270 kts 25°
2026-04-23 00:24 40.70077 -74.64579 6617 ft 261 kts 25°
2026-04-23 00:24 40.71604 -74.63332 6354 ft 254 kts 25°
2026-04-23 00:25 40.73018 -74.62174 6109 ft 248 kts 25°
2026-04-23 00:25 40.74446 -74.61005 5856 ft 245 kts 26°
2026-04-23 00:25 40.75872 -74.59838 5604 ft 244 kts 26°
2026-04-23 00:25 40.77285 -74.58681 5360 ft 243 kts 26°
2026-04-23 00:26 40.78651 -74.57562 5122 ft 243 kts 27°
2026-04-23 00:26 40.80019 -74.56441 4881 ft 243 kts 27°
2026-04-23 00:26 40.81367 -74.55333 4648 ft 243 kts 27°
2026-04-23 00:26 40.82739 -74.54208 4407 ft 241 kts 27°
2026-04-23 00:27 40.85426 -74.51999 4019 ft 239 kts 28°
2026-04-23 00:27 40.86813 -74.50909 4013 ft 237 kts 22°
2026-04-23 00:27 40.88226 -74.50052 4017 ft 238 kts 20°
2026-04-23 00:28 40.89745 -74.49144 4015 ft 238 kts 20°
2026-04-23 00:28 40.91228 -74.48257 4015 ft 238 kts 20°
2026-04-23 00:28 40.92740 -74.47350 4014 ft 239 kts 20°
2026-04-23 00:28 40.94165 -74.46494 4014 ft 239 kts 20°
2026-04-23 00:29 40.95623 -74.45618 4013 ft 238 kts 20°
2026-04-23 00:29 40.97139 -74.44707 4013 ft 239 kts 20°
2026-04-23 00:29 40.98536 -74.43868 3994 ft 239 kts 20°
2026-04-23 00:29 40.99934 -74.43027 3767 ft 241 kts 20°
2026-04-23 00:30 41.01376 -74.42158 3528 ft 238 kts 20°
2026-04-23 00:30 41.02738 -74.41213 3285 ft 241 kts 36°
2026-04-23 00:30 41.03472 -74.39911 3109 ft 247 kts 65°
2026-04-23 00:30 41.03778 -74.37936 3032 ft 247 kts 81°
2026-04-23 00:31 41.03989 -74.35610 3019 ft 247 kts 81°
2026-04-23 00:31 41.04187 -74.33448 3044 ft 246 kts 82°
2026-04-23 00:31 41.04383 -74.31301 3023 ft 239 kts 81°
2026-04-23 00:31 41.04586 -74.29102 3011 ft 235 kts 81°
2026-04-23 00:32 41.04783 -74.26962 3018 ft 236 kts 81°
2026-04-23 00:32 41.04952 -74.25125 3018 ft 237 kts 81°
2026-04-23 00:32 41.05151 -74.22958 3014 ft 237 kts 82°